Location: Emblem
(62.4273°N, 6.4710°E)
Time: 02:01:40
(UTC+02:00)

S-56A Canister/Altair - Pass Details

Date: 07 March 2024
Orbit: 639 x 2488 km, 38.9° (Epoch: 17 April)

Event Time Altitude Azimuth Distance (km) Brightness Sun altitude
Rises 08:50:28 0° 231° (SW) 5,004 11.5 9.3°
Reaches altitude 10° 08:56:58 10° 204° (SSW) 3,491 11.0 10.0°
Maximum altitude 08:59:30 12° 187° (S) 3,158 11.1 10.2°
Drops below altitude 10° 09:01:48 10° 169° (S) 3,081 11.4 10.4°
Sets 09:06:27 0° 137° (SE) 3,643 12.8 10.9°
